{"data":{"norad_id":66633,"epoch":"2026-09-20T10:20:13.409664Z","epoch_age_seconds":92415,"freshness":"FRESH","line1":"1 66633U 25271S   26263.43071076  .00007872  00000+0  24384-3 0  9995","line2":"2 66633  53.1592 310.3315 0000901  93.3602 266.7504 15.34401365 47452","mean_motion":15.34401365,"eccentricity":9.01e-5,"inclination_deg":53.1592,"raan_deg":310.3315,"arg_perigee_deg":93.3602,"mean_anomaly_deg":266.7504,"bstar":0.00024384,"rev_number":4745,"period_min":93.84767459458,"perigee_km":462.08282380235,"apogee_km":463.31554248255,"semimajor_km":6840.8361831425,"source":"CELESTRAK","updated_at":"2026-09-21T09:00:35.985344Z"}}